COSMOS 1867 COOLANT

Satellite information

Favourite Embed

Satellite Type and Status

DEBRISIN ORBIT

Key statistics

Satellite COSMOS 1867 COOLANT at a glance.

Uptime

14037

Days in orbit

Revolutions

≈ 14.3

Per day

Orbit

LEO

Low Earth Orbit

Inclination

65.0

Latest

Satellite identification and parameters

Extended collection of information and parameters for COSMOS 1867 COOLANT.

Object identification

Identified? True

Debris? False

Object name: COSMOS 1867 COOLANT

International designator: 1987-060AF

Object number (NORAD): 39668

Object ID (CCSDS): 39668

Country: COMMONWEALTH OF INDEPENDENT STATES (CIS)

Current information (Y/N): Y

RCS size: SMALL

Orbital parameters

Period: 100.429 minutes

Inclination: 65.0077 deg

SMA: 7157.026 km

Apoapsis: 788.999 km

Periapsis: 768.783 km

RAAN: 174.7447 deg

Eccentricy: 0.0014123

Argument of periapsis: 274.9431 deg

Mean anomaly: 85.0043 deg

Mean motion: 14.33850514 rev/day

Mean motion (dot): 0.00000476 rev/day2

B* drag term: 0.00020651 1/REarth

Two-line elements (TLE)

Creation date: Dec. 12, 2025, 7:16 a.m.

Reference frame: TEME

Reference center: EARTH

Epoch: Dec. 11, 2025, 9:57 p.m. UTC

TLE line 0: 0 COSMOS 1867 COOLANT

TLE line 1: 1 39668U 87060AF 25345.91520248 .00000476 00000-0 20651-3 0 9997

TLE line 2: 2 39668 65.0077 174.7447 0014123 274.9431 85.0043 14.33850514609801

Live tracking on map

Real-time ground track for satellite COSMOS 1867 COOLANT.

In-orbit conjunctions

A list of the most updated potential collisions computed for object COSMOS 1867 COOLANT.

Target Orbit TCA Probability of collision Miss distance Type
CZ-6A DEB LEO 2024-10-10 05:29:11 0.0002866287 728.0 (m) DEBRIS
COSMOS 374 MEO 2024-08-31 09:54:04 0.0001918091 49.0 (m) PAYLOAD

Associated space launch

Nuclear-powered magnetospheric research satellite

COSMOS 1867 COOLANT was lifted into orbit during the mission ‘Tsiklon-2 | Plasma-A 2’, on board a Tsiklon-2 space rocket.

The launch took place on July 10, 1987, 3:35 p.m. from 90.

For more information about the launch, click the button.

Launch to space Tsiklon-2 | Plasma-A 2
Tsiklon-2 | Plasma-A 2

Agency: N/A

Status: Launch Successful

Launch date: July 10, 1987, 3:35 p.m. UTC

Rocket: Tsiklon-2

Launch pad: 90

Location: Baikonur Cosmodrome, Republic of Kazakhstan

...

Latest news about this satellite

There are no fresh news available about this satellite. Check back as we update our databases every day.


Newsletter sign-up

Weekly statistics, charts and insights to help you stay on top of the space industry.